Wrangell, AK

4:09 PM AKDT on March 29, 2017 (GMT -0800)
Wrangell

Weather History for PAWG - March, 2013

Change the Weather History Date:

Tuesday, March 12, 2013

  Actual Average Record
Temperature  
Mean Temperature 37 °F -  
Max Temperature 42 °F 43 °F 55 °F (1981)
Min Temperature 32 °F 31 °F 18 °F (1953)
Degree Days  
Heating Degree Days 28    
Moisture  
Dew Point 27 °F    
Average Humidity 69    
Maximum Humidity 87    
Minimum Humidity 49    
Precipitation  
Precipitation 0.02 in - - ()
Sea Level Pressure  
Sea Level Pressure 29.80 in    
Wind  
Wind Speed 7 mph (ESE)    
Max Wind Speed 13 mph    
Max Gust Speed -    
Visibility 10 miles    
Events      
Averages and records for this station are not official NWS values.
T = Trace of Precipitation, MM = Missing Value Source: NWS Daily Summary

Daily Weather History Graph

Daily Weather History Graph

Search for Another Location

Airport or City:

Trip Planner

Search our weather history database for the weather conditions in past years. The results will help you decide how hot, cold, wet, or windy it might be!

Date:

Astronomy

Mar. 12, 2013 Rise Set
Actual Time 7:11 AM AKDT 6:47 PM AKDT
Civil Twilight 6:34 AM AKDT 7:25 PM AKDT
Nautical Twilight 5:50 AM AKDT 8:09 PM AKDT
Astronomical Twilight 5:04 AM AKDT 8:54 PM AKDT
Moon 7:04 AM AKDT (3/12) 8:35 PM AKDT (3/12)
Length of Visible Light 12h 50m
Length of Day
11h 35m
New Moon, 1% of the Moon is Illuminated
Mar 12
New Moon
Mar 19
First Quarter
Mar 27
Full
Apr 2
Last Quarter
Apr 10
New

Hourly Weather History & Observations

Time (AKDT) Temp. Windchill Dew Point Humidity Pressure Visibility Wind Dir Wind Speed Gust Speed Precip Events Conditions
12:16 AM 35.6 °F 29.2 °F 30.2 °F 81% 30.02 in 10.0 mi ESE 8.1 mph - N/A   Overcast
12:36 AM 35.6 °F 29.2 °F 30.2 °F 81% 30.00 in 10.0 mi East 8.1 mph - N/A   Mostly Cloudy
12:56 AM 35.6 °F 29.9 °F 28.4 °F 75% 30.00 in 10.0 mi ESE 6.9 mph - N/A   Partly Cloudy
1:16 AM 33.8 °F 27.0 °F 28.4 °F 81% 29.99 in 10.0 mi SE 8.1 mph - N/A   Partly Cloudy
1:36 AM 33.8 °F 27.0 °F 28.4 °F 81% 29.98 in 10.0 mi SE 8.1 mph - N/A   Clear
1:56 AM 33.8 °F 28.6 °F 28.4 °F 81% 29.97 in 10.0 mi SSE 5.8 mph - N/A   Partly Cloudy
2:16 AM 32.0 °F 26.4 °F 26.6 °F 80% 29.96 in 10.0 mi SE 5.8 mph - N/A   Scattered Clouds
2:36 AM 32.0 °F 27.5 °F 26.6 °F 80% 29.96 in 10.0 mi SSE 4.6 mph - N/A   Scattered Clouds
2:56 AM 33.8 °F 28.6 °F 26.6 °F 75% 29.94 in 10.0 mi SE 5.8 mph - N/A   Mostly Cloudy
3:16 AM 33.8 °F - 28.4 °F 81% 29.94 in 10.0 mi Calm Calm - N/A   Mostly Cloudy
3:36 AM 32.0 °F 28.7 °F 26.6 °F 80% 29.93 in 10.0 mi SE 3.5 mph - N/A   Mostly Cloudy
3:56 AM 33.8 °F 26.4 °F 28.4 °F 81% 29.91 in 10.0 mi ESE 9.2 mph - N/A   Mostly Cloudy
4:16 AM 33.8 °F 28.6 °F 28.4 °F 81% 29.91 in 10.0 mi SE 5.8 mph - N/A   Partly Cloudy
4:36 AM 33.8 °F 27.0 °F 28.4 °F 81% 29.90 in 10.0 mi ESE 8.1 mph - N/A   Scattered Clouds
4:56 AM 33.8 °F 27.0 °F 28.4 °F 81% 29.89 in 10.0 mi ESE 8.1 mph - N/A   Clear
5:16 AM 33.8 °F 25.8 °F 28.4 °F 81% 29.88 in 10.0 mi ESE 10.4 mph - N/A   Mostly Cloudy
5:36 AM 33.8 °F 26.4 °F 28.4 °F 81% 29.87 in 10.0 mi SE 9.2 mph - N/A   Scattered Clouds
5:56 AM 32.0 °F 24.8 °F 26.6 °F 80% 29.86 in 10.0 mi SE 8.1 mph - N/A   Partly Cloudy
6:16 AM 33.8 °F 25.8 °F 28.4 °F 81% 29.85 in 10.0 mi ESE 10.4 mph - N/A   Partly Cloudy
6:36 AM 32.0 °F 24.2 °F 26.6 °F 80% 29.84 in 10.0 mi SE 9.2 mph - N/A   Partly Cloudy
6:56 AM 33.8 °F 27.0 °F 26.6 °F 75% 29.84 in 10.0 mi ESE 8.1 mph - N/A   Partly Cloudy
7:16 AM 33.8 °F 26.4 °F 26.6 °F 75% 29.82 in 10.0 mi ESE 9.2 mph - N/A   Partly Cloudy
7:36 AM 32.0 °F 24.2 °F 26.6 °F 80% 29.82 in 10.0 mi SE 9.2 mph - N/A   Partly Cloudy
7:56 AM 33.8 °F 27.0 °F 26.6 °F 75% 29.81 in 10.0 mi SE 8.1 mph - N/A   Partly Cloudy
8:16 AM 33.8 °F 25.8 °F 26.6 °F 75% 29.81 in 10.0 mi SE 10.4 mph - N/A   Partly Cloudy
8:36 AM 33.8 °F 25.3 °F 26.6 °F 75% 29.80 in 10.0 mi SE 11.5 mph - N/A   Partly Cloudy
8:56 AM 33.8 °F 25.8 °F 28.4 °F 81% 29.80 in 10.0 mi SE 10.4 mph - N/A   Partly Cloudy
9:16 AM 35.6 °F 27.1 °F 28.4 °F 75% 29.79 in 10.0 mi ESE 12.7 mph - N/A   Partly Cloudy
9:36 AM 35.6 °F 27.1 °F 30.2 °F 81% 29.79 in 10.0 mi ESE 12.7 mph - N/A   Partly Cloudy
9:56 AM 35.6 °F 27.5 °F 28.4 °F 75% 29.79 in 10.0 mi ESE 11.5 mph - N/A   Scattered Clouds
10:16 AM 37.4 °F 30.3 °F 26.6 °F 65% 29.79 in 10.0 mi ESE 10.4 mph - N/A   Scattered Clouds
10:36 AM 37.4 °F 31.4 °F 26.6 °F 65% 29.79 in 10.0 mi ESE 8.1 mph - N/A   Scattered Clouds
10:56 AM 37.4 °F 30.8 °F 28.4 °F 70% 29.78 in 10.0 mi SE 9.2 mph - N/A   Scattered Clouds
11:16 AM 37.4 °F 31.4 °F 28.4 °F 70% 29.78 in 10.0 mi SE 8.1 mph - N/A   Scattered Clouds
11:36 AM 39.2 °F 34.2 °F 28.4 °F 65% 29.77 in 10.0 mi SE 6.9 mph - N/A   Scattered Clouds
11:56 AM 39.2 °F 34.2 °F 26.6 °F 61% 29.77 in 10.0 mi SE 6.9 mph - N/A   Scattered Clouds
12:16 PM 39.2 °F 34.2 °F 26.6 °F 61% 29.77 in 10.0 mi SE 6.9 mph - N/A   Scattered Clouds
12:36 PM 39.2 °F 35.0 °F 26.6 °F 61% 29.77 in 10.0 mi SE 5.8 mph - N/A   Scattered Clouds
12:56 PM 39.2 °F 35.0 °F 26.6 °F 61% 29.77 in 10.0 mi SE 5.8 mph - N/A   Scattered Clouds
1:16 PM 41.0 °F 35.8 °F 26.6 °F 57% 29.76 in 10.0 mi ESE 8.1 mph - N/A   Scattered Clouds
1:36 PM 41.0 °F 35.8 °F 26.6 °F 57% 29.76 in 10.0 mi ESE 8.1 mph - N/A   Scattered Clouds
1:56 PM 42.8 °F 38.6 °F 24.8 °F 49% 29.75 in 10.0 mi ESE 6.9 mph - N/A   Scattered Clouds
2:16 PM 41.0 °F 37.1 °F 24.8 °F 53% 29.75 in 10.0 mi ESE 5.8 mph - N/A   Scattered Clouds
2:36 PM 41.0 °F 36.4 °F 24.8 °F 53% 29.74 in 10.0 mi ESE 6.9 mph - N/A   Scattered Clouds
2:56 PM 41.0 °F 35.2 °F 24.8 °F 53% 29.74 in 10.0 mi ESE 9.2 mph - N/A   Scattered Clouds
3:16 PM 41.0 °F 35.2 °F 24.8 °F 53% 29.73 in 10.0 mi East 9.2 mph - N/A   Overcast
3:36 PM 41.0 °F 35.2 °F 23.0 °F 49% 29.73 in 10.0 mi ESE 9.2 mph - N/A   Overcast
3:56 PM 41.0 °F 35.8 °F 23.0 °F 49% 29.72 in 10.0 mi ESE 8.1 mph - N/A   Overcast
4:16 PM 41.0 °F 37.1 °F 23.0 °F 49% 29.72 in 10.0 mi ESE 5.8 mph - N/A   Overcast
4:36 PM 41.0 °F 38.0 °F 23.0 °F 49% 29.71 in 10.0 mi East 4.6 mph - N/A   Overcast
4:56 PM 41.0 °F 39.0 °F 24.8 °F 53% 29.71 in 10.0 mi ENE 3.5 mph - N/A   Overcast
5:16 PM 39.2 °F 35.0 °F 24.8 °F 56% 29.71 in 10.0 mi ENE 5.8 mph - N/A   Overcast
5:36 PM 39.2 °F 35.0 °F 21.2 °F 49% 29.70 in 10.0 mi East 5.8 mph - N/A   Overcast
5:56 PM 39.2 °F 35.0 °F 23.0 °F 52% 29.70 in 10.0 mi East 5.8 mph - N/A   Overcast
6:16 PM 39.2 °F 35.0 °F 23.0 °F 52% 29.70 in 10.0 mi SSE 5.8 mph - N/A   Overcast
6:36 PM 39.2 °F 37.0 °F 24.8 °F 56% 29.69 in 10.0 mi East 3.5 mph - N/A   Overcast
6:56 PM 39.2 °F 35.0 °F 23.0 °F 52% 29.69 in 10.0 mi ESE 5.8 mph - N/A   Overcast
7:16 PM 37.4 °F 31.4 °F 24.8 °F 60% 29.69 in 10.0 mi NNE 8.1 mph - N/A   Overcast
7:36 PM 37.4 °F 31.4 °F 24.8 °F 60% 29.69 in 10.0 mi NE 8.1 mph - N/A   Overcast
7:56 PM 37.4 °F 32.8 °F 24.8 °F 60% 29.69 in 10.0 mi South 5.8 mph - N/A   Overcast
8:16 PM 37.4 °F 34.9 °F 23.0 °F 56% 29.69 in 10.0 mi South 3.5 mph - N/A   Overcast
8:36 PM 35.6 °F 30.7 °F 24.8 °F 65% 29.69 in 10.0 mi South 5.8 mph - N/A   Overcast
8:56 PM 35.6 °F 31.7 °F 24.8 °F 65% 29.69 in 10.0 mi SW 4.6 mph - N/A   Overcast
9:56 PM 33.8 °F 29.6 °F 28.4 °F 81% 29.71 in 10.0 mi West 4.6 mph - N/A   Overcast
10:16 PM 33.8 °F 29.6 °F 28.4 °F 81% 29.71 in 10.0 mi WNW 4.6 mph - N/A   Overcast
10:36 PM 32.0 °F - 28.4 °F 87% 29.71 in 10.0 mi Calm Calm - 0.01 in   Overcast
10:56 PM 32.0 °F - 28.4 °F 87% 29.72 in 10.0 mi Calm Calm - 0.01 in   Overcast
11:16 PM 32.0 °F - 28.4 °F 87% 29.72 in 1.5 mi Calm Calm - N/A   Overcast
11:36 PM 32.0 °F - 28.4 °F 87% 29.72 in 2.0 mi Calm Calm - 0.01 in   Overcast
11:56 PM 32.0 °F 26.4 °F 28.4 °F 87% 29.72 in 1.8 mi East 5.8 mph - 0.01 in   Overcast